User: anonymous   Login
Location: Unspecified
(0.0000°N, 0.0000°E)
Time: 20:33:32
(UTC+00:00)
Language:

SIRIUS-3 - Orbit

View from above orbital plane
View from above orbital plane
View from above satellite
View from above satellite

Ground track
Ground track

The orbit data is extracted from the following two-line orbital elements,

1 26626U 00077A   21201.39750753 -.00000070  00000-0  00000+0 0  9998
2 26626  61.4007 314.7448 0003552 317.6748  42.3010  1.58822231 86033
Epoch (UTC): 20 July 2021 09:32:24
Eccentricity: 0.0003552
inclination: 61.4007°
perigee height: 24641 km
apogee height: 24663 km
right ascension of ascending node: 314.7448°
argument of perigee: 317.6748°
revolutions per day: 1.58822231
mean anomaly at epoch: 42.3010°
orbit number at epoch: 8603

The dashed part of the orbit path shows where the satellite is in the earth's shadow,  

DLR